Weather reports worldwide

Advertisment
Bradford, United Kingdom (99171): temperature & dewpoint: 17.04.2019 18:00:00 - 23.04.2019 18:00:00 (BST)Bradford, United Kingdom (99171): temperature -20cm & temperature -100cm: 17.04.2019 18:00:00 - 23.04.2019 18:00:00 (BST)Bradford, United Kingdom (99171): precipitation: 17.04.2019 18:00:00 - 23.04.2019 18:00:00 (BST)
Date & Time tt [°C] td [°C] tt -20cm [°C] tt -100cm [°C] rr [mm]
23.04.2019 18:00:00 - - - - -
23.04.2019 17:00:00 15,9 5,9 - - 0,0
23.04.2019 16:00:00 16,5 5,9 - - 0,0
23.04.2019 15:00:00 16,4 6,2 - - 0,0
23.04.2019 14:00:00 16,3 7,3 - - 0,0
23.04.2019 13:00:00 15,3 8,2 - - 0,0
23.04.2019 12:00:00 12,9 7,4 - - 0,0
23.04.2019 11:00:00 12,1 7,6 - - 0,0
23.04.2019 10:00:00 11,3 6,4 10,7 8,7 0,0
23.04.2019 09:00:00 11,0 6,8 - - 0,0
23.04.2019 08:00:00 9,7 6,5 - - 0,0
23.04.2019 07:00:00 8,8 6,2 - - 0,0
23.04.2019 06:00:00 8,8 5,7 - - 0,0
23.04.2019 05:00:00 8,9 5,7 - - 0,0
23.04.2019 04:00:00 9,1 5,7 - - 0,0
23.04.2019 03:00:00 9,9 6,0 - - 0,0
23.04.2019 02:00:00 10,6 5,8 - - 0,0
23.04.2019 01:00:00 11,5 5,9 - - 0,0
23.04.2019 00:00:00 11,9 6,1 - - 0,0
22.04.2019 23:00:00 12,4 6,1 - - 0,0
22.04.2019 22:00:00 13,3 6,0 - - 0,0
22.04.2019 21:00:00 15,1 5,8 - - 0,0
22.04.2019 20:00:00 17,5 5,0 - - 0,0
22.04.2019 19:00:00 18,7 3,7 - - 0,0
22.04.2019 18:00:00 20,0 4,4 - - 0,0
22.04.2019 17:00:00 20,4 5,9 - - 0,0
22.04.2019 16:00:00 20,0 7,7 - - 0,0
22.04.2019 15:00:00 20,7 6,4 - - 0,0
22.04.2019 14:00:00 19,8 3,5 - - 0,0
22.04.2019 13:00:00 18,2 -0,5 - - 0,0
22.04.2019 12:00:00 17,1 -0,7 - - 0,0
22.04.2019 11:00:00 16,2 0,5 - - 0,0
22.04.2019 10:00:00 13,8 4,4 10,2 8,5 0,0
22.04.2019 09:00:00 12,7 5,1 - - 0,0
22.04.2019 08:00:00 9,1 6,3 - - 0,0
22.04.2019 07:00:00 6,2 5,0 - - 0,0
22.04.2019 06:00:00 6,5 4,7 - - 0,0
22.04.2019 05:00:00 7,1 4,7 - - 0,0
22.04.2019 04:00:00 8,0 5,3 - - 0,0
22.04.2019 03:00:00 9,0 5,7 - - 0,0
22.04.2019 02:00:00 9,3 5,7 - - 0,0
22.04.2019 01:00:00 10,7 6,0 - - 0,0
22.04.2019 00:00:00 12,3 5,6 - - 0,0
21.04.2019 23:00:00 13,6 5,4 - - 0,0
21.04.2019 22:00:00 15,1 4,5 - - 0,0
21.04.2019 21:00:00 17,7 3,9 - - 0,0
21.04.2019 20:00:00 19,8 2,9 - - 0,0
21.04.2019 19:00:00 20,9 2,4 - - 0,0
21.04.2019 18:00:00 21,6 1,2 - - 0,0
21.04.2019 17:00:00 21,9 2,4 - - 0,0
21.04.2019 16:00:00 22,1 3,1 - - 0,0
21.04.2019 15:00:00 21,9 4,0 - - 0,0
21.04.2019 14:00:00 21,6 4,1 - - 0,0
21.04.2019 13:00:00 21,4 5,5 - - 0,0
21.04.2019 12:00:00 20,7 6,6 - - 0,0
21.04.2019 11:00:00 19,5 6,2 - - 0,0
21.04.2019 10:00:00 17,8 6,5 10,0 8,2 0,0
21.04.2019 09:00:00 13,9 7,7 - - 0,0
21.04.2019 08:00:00 11,3 8,4 - - 0,0
21.04.2019 07:00:00 7,2 5,9 - - 0,0
21.04.2019 06:00:00 7,1 5,7 - - 0,0
21.04.2019 05:00:00 7,9 5,9 - - 0,0
21.04.2019 04:00:00 8,1 6,3 - - 0,0
21.04.2019 03:00:00 9,4 6,6 - - 0,0
21.04.2019 02:00:00 9,9 6,3 - - 0,0
21.04.2019 01:00:00 11,4 7,0 - - 0,0
21.04.2019 00:00:00 12,9 7,1 - - 0,0
20.04.2019 23:00:00 14,3 7,0 - - 0,0
20.04.2019 22:00:00 15,5 6,6 - - 0,0
20.04.2019 21:00:00 17,5 6,4 - - 0,0
20.04.2019 20:00:00 19,2 2,7 - - 0,0
20.04.2019 19:00:00 20,3 2,8 - - 0,0
20.04.2019 18:00:00 21,2 2,5 - - 0,0
20.04.2019 17:00:00 22,1 1,5 - - 0,0
20.04.2019 16:00:00 21,9 1,8 - - 0,0
20.04.2019 15:00:00 21,8 2,2 - - 0,0
20.04.2019 14:00:00 21,5 2,3 - - 0,0
20.04.2019 13:00:00 21,2 4,2 - - 0,0
20.04.2019 12:00:00 20,5 4,9 - - 0,0
20.04.2019 11:00:00 18,5 4,5 - - 0,0
20.04.2019 10:00:00 15,8 6,2 9,7 8,0 0,0
20.04.2019 09:00:00 12,4 6,0 - - 0,0
20.04.2019 08:00:00 8,8 5,8 - - 0,0
20.04.2019 07:00:00 6,5 5,0 - - 0,0
20.04.2019 06:00:00 6,2 4,5 - - 0,0
20.04.2019 05:00:00 6,0 4,3 - - 0,0
20.04.2019 04:00:00 6,4 4,5 - - 0,0
20.04.2019 03:00:00 7,5 4,6 - - 0,0
20.04.2019 02:00:00 8,2 4,7 - - 0,0
20.04.2019 01:00:00 9,7 4,9 - - 0,0
20.04.2019 00:00:00 10,5 5,8 - - 0,0
19.04.2019 23:00:00 11,8 6,0 - - 0,0
19.04.2019 22:00:00 13,9 6,0 - - 0,0
19.04.2019 21:00:00 16,0 5,0 - - 0,0
19.04.2019 20:00:00 17,4 3,6 - - 0,0
19.04.2019 19:00:00 19,1 5,6 - - 0,0
19.04.2019 18:00:00 20,2 6,6 - - 0,0
19.04.2019 17:00:00 20,5 6,2 - - 0,0
19.04.2019 16:00:00 19,9 5,7 - - 0,0
19.04.2019 15:00:00 19,8 4,5 - - 0,0
19.04.2019 14:00:00 20,1 4,4 - - 0,0
19.04.2019 13:00:00 18,5 5,9 - - 0,0
19.04.2019 12:00:00 17,2 6,6 - - 0,0
19.04.2019 11:00:00 15,6 8,1 - - 0,0
19.04.2019 10:00:00 13,2 7,6 9,0 7,9 0,0
19.04.2019 09:00:00 10,3 6,4 - - 0,0
19.04.2019 08:00:00 6,7 6,5 - - 0,0
19.04.2019 07:00:00 4,8 4,2 - - 0,0
19.04.2019 06:00:00 5,0 4,3 - - 0,0
19.04.2019 05:00:00 5,6 4,7 - - 0,0
19.04.2019 04:00:00 6,0 4,6 - - 0,0
19.04.2019 03:00:00 7,2 5,5 - - 0,0
19.04.2019 02:00:00 7,4 5,6 - - 0,0
19.04.2019 01:00:00 7,3 5,5 - - 0,0
19.04.2019 00:00:00 8,2 6,0 - - 0,0
18.04.2019 23:00:00 8,6 5,8 - - 0,0
18.04.2019 22:00:00 10,0 6,0 - - 0,0
18.04.2019 21:00:00 11,4 6,2 - - 0,0
18.04.2019 20:00:00 13,1 6,5 - - 0,0
18.04.2019 19:00:00 15,0 4,7 - - 0,0
18.04.2019 18:00:00 16,1 4,0 - - 0,0
18.04.2019 17:00:00 17,4 4,8 - - 0,0
18.04.2019 16:00:00 18,0 5,1 - - 0,0
18.04.2019 15:00:00 18,1 6,2 - - 0,0
18.04.2019 14:00:00 17,0 8,6 - - 0,0
18.04.2019 13:00:00 15,2 9,3 - - 0,0
18.04.2019 12:00:00 14,5 9,4 - - 0,0
18.04.2019 11:00:00 11,2 7,6 - - 0,0
18.04.2019 10:00:00 9,7 7,4 8,7 7,7 0,0
18.04.2019 09:00:00 8,3 6,7 - - 0,0
18.04.2019 08:00:00 7,7 6,4 - - 0,0
18.04.2019 07:00:00 7,3 6,1 - - 0,0
18.04.2019 06:00:00 7,3 6,0 - - 0,0
18.04.2019 05:00:00 7,5 5,9 - - 0,0
18.04.2019 04:00:00 7,6 6,2 - - 0,0
18.04.2019 03:00:00 7,1 6,1 - - 0,0
18.04.2019 02:00:00 7,2 6,1 - - 0,0
18.04.2019 01:00:00 7,6 6,4 - - 0,0
18.04.2019 00:00:00 8,2 6,5 - - 0,0
17.04.2019 23:00:00 9,2 7,0 - - 0,0
17.04.2019 22:00:00 10,0 7,3 - - 0,0
17.04.2019 21:00:00 11,1 7,6 - - 0,0
17.04.2019 20:00:00 12,4 7,6 - - 0,0
17.04.2019 19:00:00 13,6 7,6 - - 0,0
17.04.2019 18:00:00 15,4 6,9 - - 0,0

tt = temperature
td = dewpoint
tt -20cm = temperature -20cm
tt -100cm = temperature -100cm
rr = precipitation

Next stations